Torna al catalogo

COSMOS 397 DEB

AttivoLEO
NORAD 5016·DEBRIS·🇷🇺 Russia

Lanciato Feb 25, 1971 da Baikonur Cosmodrome

Loading…

Prossimi Passaggi (prossime 24 ore)

TLE

AggiornatoSource: Space-Track

Epoca: Sep 14, 2026, 14:57 UTC

1 05016U 71015K   26257.62321478  .00003653  00000-0  10792-2 0  9999
2 05016  65.8141 214.6675 0639626  37.5640 326.8363 13.65766474665419

Traccia COSMOS 397 DEB in tempo reale con AllMySat

Download on the App Store